Bookmark and Share
Track history (hours):
 

Vano

Last reported at 2014-Apr-23 14:33 UTC. Time now 2014-Apr-23 15:24 UTC.
Position N 59°20' E 018°05'.

Length 38 m; draft 1.8 m.

Type: Passenger vessel. MMSI: 265520400.

NotesDate/timePositionNaut miles runAvg speedWind from/ knotsBaromVisibWave heightAir tempDewpointWater temp
2014-Apr-23 14:33N 59°20' E 018°05'0 0.0
2014-Apr-23 13:33N 59°20' E 018°05'0 0.0
2014-Apr-23 12:33N 59°20' E 018°05'0 0.0
2014-Apr-23 11:33N 59°20' E 018°05'0 0.0
2014-Apr-23 10:33N 59°20' E 018°05'0 0.0
2014-Apr-23 09:33N 59°20' E 018°05'0 0.0
2014-Apr-23 08:33N 59°20' E 018°05'0 0.0
2014-Apr-23 07:33N 59°20' E 018°05'0 0.0
2014-Apr-23 06:33N 59°20' E 018°05'0 0.0
2014-Apr-23 05:33N 59°20' E 018°05'0 0.0
2014-Apr-23 04:33N 59°20' E 018°05'0 0.0
2014-Apr-23 03:33N 59°20' E 018°05'0 0.0
2014-Apr-23 02:33N 59°20' E 018°05'0 0.0
2014-Apr-23 01:33N 59°20' E 018°05'0 0.0
2014-Apr-23 00:33N 59°20' E 018°05'0 0.0
2014-Apr-22 23:33N 59°20' E 018°05'0 0.0
2014-Apr-22 22:33N 59°20' E 018°05'0 0.0
2014-Apr-22 21:33N 59°20' E 018°05'0 0.0
2014-Apr-22 20:33N 59°20' E 018°05'0 0.0
2014-Apr-22 19:33N 59°20' E 018°05'0 0.0
2014-Apr-22 18:33N 59°20' E 018°05'0 0.0
2014-Apr-22 17:33N 59°20' E 018°05'0 0.0
2014-Apr-22 16:33N 59°20' E 018°05'0 0.0
2014-Apr-22 15:33N 59°20' E 018°05'0 0.0
2014-Apr-22 14:33N 59°20' E 018°05'0 0.0
2014-Apr-22 13:33N 59°20' E 018°05'0 0.0
2014-Apr-22 12:33N 59°20' E 018°05'0 0.0
2014-Apr-22 11:33N 59°20' E 018°05'0 0.0
2014-Apr-22 10:33N 59°20' E 018°05'0 0.0
2014-Apr-22 09:33N 59°20' E 018°05'0 0.0
2014-Apr-22 08:33N 59°20' E 018°05'0 0.0
2014-Apr-22 07:33N 59°20' E 018°05'0 0.0
2014-Apr-22 06:33N 59°20' E 018°05'0 0.0
2014-Apr-22 05:33N 59°20' E 018°05'0 0.0
2014-Apr-22 04:33N 59°20' E 018°05'0 0.0
2014-Apr-22 03:33N 59°20' E 018°05'0 0.0
2014-Apr-22 02:33N 59°20' E 018°05'0 0.0
2014-Apr-22 01:33N 59°20' E 018°05'0 0.0
2014-Apr-22 00:33N 59°20' E 018°05'0 0.0
2014-Apr-21 23:33N 59°20' E 018°05'0 0.0
2014-Apr-21 22:33N 59°20' E 018°05'0 0.0
2014-Apr-21 21:33N 59°20' E 018°05'0 0.0
2014-Apr-21 20:33N 59°20' E 018°05'0 0.0
2014-Apr-21 19:33N 59°20' E 018°05'0 0.3
2014-Apr-21 18:33N 59°19' E 018°05'9 2.2
2014-Apr-21 14:26N 59°23' E 018°21'910.1
2014-Apr-21 13:33N 59°20' E 018°05'9 1.5
2014-Apr-21 07:31N 59°23' E 018°20'9 9.3
2014-Apr-21 06:33N 59°20' E 018°05'0 0.0
2014-Apr-21 05:33N 59°20' E 018°05'0 0.0
2014-Apr-21 04:33N 59°20' E 018°05'0 0.0
2014-Apr-21 03:33N 59°20' E 018°05'0 0.0
2014-Apr-21 02:33N 59°20' E 018°05'0 0.0
2014-Apr-21 01:33N 59°20' E 018°05'0 0.0
2014-Apr-21 00:33N 59°20' E 018°05'0 0.0
2014-Apr-20 23:33N 59°20' E 018°05'0 0.0
2014-Apr-20 22:33N 59°20' E 018°05'0 0.0
2014-Apr-20 21:33N 59°20' E 018°05'0 0.0
2014-Apr-20 20:33N 59°20' E 018°05'0 0.0
2014-Apr-20 19:33N 59°20' E 018°05'9 1.7
2014-Apr-20 14:28N 59°23' E 018°21'9 9.7
2014-Apr-20 13:33N 59°20' E 018°04'8 1.4
2014-Apr-20 07:32N 59°23' E 018°20'8 8.7
2014-Apr-20 06:33N 59°20' E 018°04'0 0.0
2014-Apr-20 05:32N 59°20' E 018°04'0 0.0
2014-Apr-20 04:34N 59°20' E 018°04'0 0.0
2014-Apr-19 15:34N 59°20' E 018°05'1 0.8
2014-Apr-19 14:33N 59°19' E 018°06'8 1.1
2014-Apr-19 07:19N 59°22' E 018°20'811.0
2014-Apr-19 06:33N 59°19' E 018°05'0 0.5
2014-Apr-19 05:33N 59°20' E 018°05'0 0.0
2014-Apr-19 04:34N 59°20' E 018°05'0 0.0
2014-Apr-19 03:34N 59°20' E 018°05'0 0.0
2014-Apr-19 02:33N 59°20' E 018°05'0 0.0
2014-Apr-19 01:33N 59°20' E 018°05'0 0.0
2014-Apr-19 00:34N 59°20' E 018°05'0 0.0
2014-Apr-18 23:33N 59°20' E 018°05'0 0.0
2014-Apr-18 22:33N 59°20' E 018°05'0 0.0
2014-Apr-18 21:33N 59°20' E 018°05'0 0.0
2014-Apr-18 20:33N 59°20' E 018°05'0 0.0
2014-Apr-18 19:33N 59°20' E 018°05'1 1.2
2014-Apr-18 18:33N 59°19' E 018°06'8 2.0
2014-Apr-18 14:28N 59°23' E 018°20'9 9.6
2014-Apr-18 13:33N 59°20' E 018°05'9 0.4
2014-Apr-17 17:18N 59°23' E 018°21'911.9
2014-Apr-17 16:34N 59°19' E 018°05'0 0.5
2014-Apr-17 15:34N 59°20' E 018°05'0 0.0
2014-Apr-17 14:34N 59°20' E 018°05'6 5.8
2014-Apr-17 13:32N 59°22' E 018°16'3 0.5
2014-Apr-17 07:29N 59°23' E 018°21'9 9.6
2014-Apr-17 06:33N 59°19' E 018°05'0 0.4
2014-Apr-17 05:33N 59°20' E 018°04'0 0.0
2014-Apr-17 04:33N 59°20' E 018°04'0 0.0
2014-Apr-17 03:33N 59°20' E 018°04'0 0.0
2014-Apr-17 02:33N 59°20' E 018°04'0 0.0
2014-Apr-17 01:33N 59°20' E 018°04'0 0.0
2014-Apr-17 00:33N 59°20' E 018°04'0 0.0
2014-Apr-16 23:33N 59°20' E 018°04'0 0.0
2014-Apr-16 22:33N 59°20' E 018°04'0 0.0
2014-Apr-16 21:33N 59°20' E 018°05'0 0.0
2014-Apr-16 20:33N 59°20' E 018°04'0 0.0
2014-Apr-16 19:33N 59°20' E 018°04'0 0.0
2014-Apr-16 18:33N 59°20' E 018°04'0 0.0
2014-Apr-16 17:33N 59°20' E 018°04'0 0.0
2014-Apr-16 16:33N 59°20' E 018°04'0 0.0
2014-Apr-16 15:33N 59°20' E 018°04'0 0.0
2014-Apr-16 14:33N 59°20' E 018°04'0 0.0
2014-Apr-16 13:33N 59°20' E 018°04'0 0.0
2014-Apr-16 12:33N 59°20' E 018°04'0 0.4
2014-Apr-16 11:33N 59°19' E 018°05'0 0.4
2014-Apr-16 10:33N 59°20' E 018°05'0 0.0
2014-Apr-16 09:33N 59°20' E 018°05'0 0.0
2014-Apr-16 08:33N 59°20' E 018°05'0 0.0
2014-Apr-16 07:33N 59°20' E 018°05'0 0.0
2014-Apr-16 06:33N 59°20' E 018°05'0 0.0
2014-Apr-16 05:33N 59°20' E 018°05'0 0.0
2014-Apr-16 04:33N 59°20' E 018°05'0 0.0
2014-Apr-16 03:33N 59°20' E 018°05'0 0.0
2014-Apr-16 02:33N 59°20' E 018°05'0 0.0
2014-Apr-16 01:33N 59°20' E 018°05'0 0.0
2014-Apr-16 00:33N 59°20' E 018°05'0 0.0
2014-Apr-15 23:33N 59°20' E 018°05'0 0.0
2014-Apr-15 22:33N 59°20' E 018°05'0 0.0
2014-Apr-15 21:33N 59°20' E 018°05'0 0.0
2014-Apr-15 20:33N 59°20' E 018°05'0 0.0
2014-Apr-15 19:33N 59°20' E 018°05'0 0.0
2014-Apr-15 18:33N 59°20' E 018°05'0 0.0
2014-Apr-15 17:34N 59°20' E 018°05'0 0.0
2014-Apr-15 16:33N 59°20' E 018°05'0 0.0
2014-Apr-15 15:33N 59°20' E 018°05'0 0.0
2014-Apr-15 14:33N 59°20' E 018°05'0 0.0
2014-Apr-15 12:34N 59°20' E 018°05'0 0.0
2014-Apr-15 11:34N 59°20' E 018°05'0 0.0
2014-Apr-15 10:34N 59°20' E 018°05'0 0.1
2014-Apr-15 09:34N 59°20' E 018°05'0 0.1
2014-Apr-15 08:34N 59°20' E 018°05'0 0.0
2014-Apr-15 07:34N 59°20' E 018°05'0 0.0
2014-Apr-15 06:34N 59°20' E 018°05'  

Dump ship's entire track history

sailing weather and tide predictions

Vano — SBNM — position and weather